Flag for U.S.A. Weather past 2 weeks in Rockford, Illinois, U.S.A.

Now
32 °F

Overcast.


Feels Like: 22 °F
Forecast: 19 / 31 °F
Wind: 14 mph from Northeast

Location: Greater Rockford Airport

Current Time: Mar 26, 2015 at 11:21:30 PM

Latest Report: Mar 26, 2015 at 10:54 PM


Visibility: 10 mi

Pressure: 30.13 "Hg

Humidity: 56%

Dew point: 18 °F

Location of RockfordLocation

Historic Weather in Rockford — Graph

°F

Rockford temperature yesterday

Maximum temperature yesterday: 42 °F (at 4:54 PM)
Minimum temperature yesterday: 34 °F (at 6:54 AM)
Average temperature yesterday: 37 °F

Past Weeks' High & Low Weather Summary

 TemperatureHumidityPressure
High73 °F (Mar 16, 3:54 PM)93% (Mar 15, 7:54 AM)30.51 "Hg (Mar 15, 7:54 AM)
Low20 °F (Mar 24, 6:54 AM)19% (Mar 21, 4:54 PM)29.75 "Hg (Mar 16, 4:54 PM)
Average41 °F61%30.18 "Hg
* Reported Mar 11 9:54 PM — Mar 26 9:54 PM, Rockford, Weather by CustomWeather, © 2015

Note: Actual official high and low records may vary slightly from our data, if they occured in-between our weather recording intervals... More about our weather records

Advertising

Rockford weather history for previous 24 hours

 ConditionsComfort  
Time TempWeatherWind HumidityBarometerVisibility
9:54 PM
Thu, Mar 26
34 °FOvercast.17 mph59%30.11 "Hg10 mi
8:54 PM34 °FOvercast.8 mph61%30.09 "Hg10 mi
7:54 PM35 °FOvercast.7 mph52%30.07 "Hg10 mi
6:54 PM36 °FOvercast.15 mph50%30.07 "Hg10 mi
5:54 PM37 °FOvercast.13 mph52%30.06 "Hg10 mi
4:54 PM39 °FOvercast.14 mph48%30.04 "Hg10 mi
3:54 PM39 °FOvercast.14 mph48%30.03 "Hg10 mi
2:54 PM39 °FOvercast.13 mph48%30.02 "Hg10 mi
1:54 PM38 °FOvercast.13 mph53%30.03 "Hg10 mi
12:54 PM39 °FOvercast.14 mph50%30.03 "Hg10 mi
11:54 AM37 °FPartly sunny.12 mph54%30.04 "Hg10 mi
10:54 AM36 °FOvercast.10 mph57%30.05 "Hg10 mi
9:54 AM36 °FPassing clouds.10 mph64%30.04 "Hg10 mi
8:54 AM34 °FPassing clouds.12 mph67%30.03 "Hg10 mi
7:54 AM31 °FScattered clouds.9 mph76%30.04 "Hg10 mi
6:54 AM28 °FPassing clouds.7 mph78%30.02 "Hg10 mi
5:54 AM29 °FPassing clouds.7 mph79%30.01 "Hg10 mi
4:54 AM30 °FPassing clouds.7 mph79%30.00 "Hg10 mi
3:54 AM32 °FPassing clouds.6 mph75%30.01 "Hg10 mi
2:54 AM33 °FPassing clouds.8 mph72%30.04 "Hg10 mi
1:54 AM34 °FMostly cloudy.9 mph70%30.06 "Hg10 mi
12:54 AM35 °FOvercast.9 mph67%30.09 "Hg10 mi
11:54 PM
Wed, Mar 25
34 °FPassing clouds.12 mph73%30.09 "Hg10 mi
Weather by CustomWeather, © 2015

See weather overviewHow to use our weather pages